Simultaneous Nadir Overpasses (SNOs) Predictions

Prediction of SNOs between FY3D and NOAA-19 Satellite Orbit:

Table of predicted SNOs for the next 14.0 days since TLE Epoch: 7/27/2024
Index Date (FY3D) Time (FY3D) Lat,Lon (FY3D) SZA (FY3D ) Date (NOAA-19) Time (NOAA-19) Lat,Lon (NOAA-19) SZA (NOAA-19 ) Distance(km) Time Diff (sec)
1 08/03/2024 20:01:16 76.00,-120.16 58.72 08/03/2024 20:00:02 76.00,-120.35 58.72 5.13 74
2 08/03/2024 20:52:01 -76.04, 47.02 121.23 08/03/2024 20:50:57 -76.01, 46.96 121.26 3.33 64
3 08/03/2024 21:42:47 76.02,-145.60 58.76 08/03/2024 21:41:59 76.03,-145.71 58.78 3.41 48
4 08/03/2024 22:33:32 -76.05, 21.58 121.20 08/03/2024 22:32:54 -76.05, 21.60 121.20 1.07 38
5 08/03/2024 23:24:18 76.04,-171.04 58.80 08/03/2024 23:23:56 76.07,-171.07 58.83 3.69 22
6 08/04/2024 00:15:03 -76.07, -3.86 121.16 08/04/2024 00:14:51 -76.08, -3.75 121.15 2.91 12
7 08/04/2024 01:05:49 76.05, 163.52 58.84 08/04/2024 01:05:54 76.06, 163.40 58.84 3.09 5
8 08/04/2024 01:56:34 -76.09, -29.29 121.12 08/04/2024 01:56:49 -76.07, -29.27 121.14 1.97 15
9 08/04/2024 02:47:20 76.07, 138.08 58.87 08/04/2024 02:47:51 76.09, 138.04 58.89 2.66 31
10 08/04/2024 03:38:05 -76.11, -54.74 121.09 08/04/2024 03:38:46 -76.11, -54.63 121.09 2.75 41
11 08/04/2024 04:28:51 76.09, 112.64 58.91 08/04/2024 04:29:49 76.09, 112.52 58.90 3.11 58
12 08/04/2024 05:19:36 -76.13, -80.18 121.05 08/04/2024 05:20:44 -76.10, -80.15 121.08 2.93 68
13 08/04/2024 06:10:31 76.51, 85.70 59.37 08/04/2024 06:11:38 76.47, 88.51 59.31 73.02 67



Historial Predications of SNOs between FY3D and NOAA-19
